User: anonymous   Login
Location: West Cummington
(42.4920°N, 72.9680°W)
Time: 05:18:35
(UTC-04:00)
Language:

Cosmos 841 Rocket - Orbit

View from above orbital plane
View from above orbital plane
View from above satellite
View from above satellite

Ground track
Ground track

The orbit data is extracted from the following two-line orbital elements,

1 09023U 76069B   14295.50019024  .00000631  00000-0  21175-3 0  5225
2 09023 074.0443 084.1936 0016630 130.7569 229.5032 14.39215785  5447
Epoch (UTC): 22 October 2014 12:00:16
Eccentricity: 0.0016630
inclination: 74.0443°
perigee height: 749 km
apogee height: 773 km
right ascension of ascending node: 84.1936°
argument of perigee: 130.7569°
revolutions per day: 14.39215785
mean anomaly at epoch: 229.5032°
orbit number at epoch: 544

The dashed part of the orbit path shows where the satellite is in the earth's shadow,  

DLR